User: anonymous   Login
Location: Caltech
(34.1382°N, 118.1253°W)
Time: 08:51:18
(UTC-07:00)
Language:

GPS 2-04 Rocket1 - Orbit

View from above orbital plane
View from above orbital plane
View from above satellite
View from above satellite

Ground track
Ground track

The orbit data is extracted from the following two-line orbital elements,

1 20303U 89085B   18173.61768848 +.00001566 +00000-0 +54585-4 0  9995
2 20303 035.6281 242.9552 0102885 211.7075 147.7425 15.25090425557641
Epoch (UTC): 22 June 2018 14:49:28
Eccentricity: 0.0102885
inclination: 35.6281°
perigee height: 420 km
apogee height: 561 km
right ascension of ascending node: 242.9552°
argument of perigee: 211.7075°
revolutions per day: 15.25090425
mean anomaly at epoch: 147.7425°
orbit number at epoch: 55764

The dashed part of the orbit path shows where the satellite is in the earth's shadow,  

DLR